51,2013-07-17 19:27:43,1374089263,55.23692,-10.11362,3,2,2013-07-17 19:26:00,1374089160,16.46,2,15.8,0,4095,55.202,-10.0748,38,48
52,2013-07-17 20:06:12,1374091572,55.18737,-10.10259,2,2,2013-07-17 20:00:00,1374091200,15.08,13,15.8,30,4095,55.202,-10.0748,38,48
53,2013-07-17 21:06:12,1374095172,55.20787,-10.10259,2,3,2013-07-17 21:00:00,1374094800,14.96,13,15.8,30,0,55.204,-10.067,64,48
54,2013-07-17 22:06:10,1374098770,55.20787,-10.10259,3,3,2013-07-17 22:00:00,1374098400,14.89,12,15.8,30,60,55.204,-10.067,64,48
55,2013-07-17 23:06:20,1374102380,55.19253,-10.04073,3,1,2013-07-17 23:00:00,1374102000,14.87,12,15.8,30,120,55.204,-10.067,64,48
56,2013-07-18 00:06:10,1374105970,55.21816,-9.97886,4,2,2013-07-18 00:00:00,1374105600,14.84,11,15.8,30,0,55.2172,-10.0424,58,44
57,2013-07-18 01:06:11,1374109571,55.24209,-10.0517,9,1,2013-07-18 01:00:00,1374109200,14.86,11,15.8,30,60,55.2172,-10.0424,58,44
58,2013-07-18 02:06:09,1374113169,55.21816,-9.97886,2,1,2013-07-18 02:00:00,1374112800,14.91,12,15.8,30,120,55.2172,-10.0424,58,44
59,2013-07-18 03:06:13,1374116773,55.20787,-10.10259,2,1,2013-07-18 03:00:00,1374116400,14.9,10,15.8,30,0,55.226,-10.0324,62,48
60,2013-07-18 04:06:11,1374120371,55.21303,-10.04073,2,7,2013-07-18 04:00:00,1374120000,14.9,10,15.8,30,60,55.226,-10.0324,62,48
61,2013-07-18 05:06:12,1374123972,55.24723,-9.98976,3,1,2013-07-18 05:00:00,1374123600,14.92,9,15.8,30,120,55.226,-10.0324,62,48
62,2013-07-18 06:06:14,1374127574,55.24723,-9.98976,2,1,2013-07-18 06:00:00,1374127200,14.9,11,15.8,30,0,55.2362,-10.035,110,48
63,2013-07-18 07:06:11,1374131171,55.24209,-10.0517,2,3,2013-07-18 07:00:00,1374130800,14.97,10,15.8,30,60,55.2362,-10.035,110,48
64,2013-07-18 08:06:09,1374134769,55.24209,-10.0517,4,1,2013-07-18 08:00:00,1374134400,15.01,9,15.8,30,120,55.2362,-10.035,110,48
65,2013-07-18 09:06:15,1374138375,55.24209,-10.0517,3,28,2013-07-18 09:00:00,1374138000,15.05,8,15.8,30,0,55.2488,-10.0328,50,48
66,2013-07-18 10:06:21,1374141981,55.25741,-12.75406,193,1,2013-07-18 10:00:00,1374141600,15.08,8,15.8,30,60,55.2488,-10.0328,50,48
67,2013-07-18 11:06:10,1374145570,55.24723,-9.98976,2,4,2013-07-18 11:00:00,1374145200,15.08,10,15.8,30,120,55.2488,-10.0328,50,48
68,2013-07-18 12:06:13,1374149173,55.29101,-10.76663,96,4,2013-07-18 12:00:00,1374148800,15.08,9,15.8,30,0,55.2608,-10.0134,32,48
69,2013-07-18 13:06:12,1374152772,55.24723,-9.98976,4,2,2013-07-18 13:00:00,1374152400,15.08,12,15.8,30,60,55.2608,-10.0134,32,48
70,2013-07-18 14:06:11,1374156371,55.28126,-10.18663,65,4,2013-07-18 14:00:00,1374156000,15.14,11,15.8,30,120,55.2608,-10.0134,32,48
71,2013-07-18 15:06:11,1374159971,55.21816,-9.97886,5,3,2013-07-18 15:00:00,1374159600,15.21,10,15.8,30,0,55.269,-9.99339999999998,32,48
72,2013-07-18 16:06:12,1374163572,55.13605,-7.67757,176,11,2013-07-18 16:00:00,1374163200,15.29,13,15.8,30,60,55.269,-9.99339999999998,32,48
73,2013-07-18 17:06:50,1374167210,55.29679,-10.00068,6,2,2013-07-18 17:00:00,1374166800,15.34,11,15.8,30,120,55.269,-9.99339999999998,32,48
74,2013-07-18 18:06:13,1374170773,55.17588,-6.48591,232,3,2013-07-18 18:00:00,1374170400,15.36,12,15.8,49,0,55.2752,-9.99639999999999,56,48
75,2013-07-18 19:06:13,1374174373,55.29679,-10.00068,5,6,2013-07-18 19:00:00,1374174000,15.3,11,15.8,30,60,55.2752,-9.99639999999999,56,48
76,2013-07-18 20:06:17,1374177977,55.29679,-10.00068,12,2,2013-07-18 20:00:00,1374177600,15.3,9,15.8,30,120,55.2752,-9.99639999999999,56,48
77,2013-07-18 21:06:14,1374181574,55.29679,-10.00068,4,8,2013-07-18 21:00:00,1374181200,15.24,9,15.8,30,0,55.2896,-9.99519999999998,18,44
78,2013-07-18 22:06:13,1374185173,55.29679,-10.00068,6,9,2013-07-18 22:00:00,1374184800,15.28,8,15.8,30,60,55.2896,-9.99519999999998,18,44
79,2013-07-18 23:06:10,1374188770,55.3019,-9.93865,3,9,2013-07-18 23:00:00,1374188400,15.33,8,15.8,30,120,55.2896,-9.99519999999998,18,44
80,2013-07-19 00:06:12,1374192372,55.3019,-9.93865,1,2,2013-07-19 00:00:00,1374192000,15.3,9,15.8,30,0,55.3022,-9.977,32,44
81,2013-07-19 01:06:13,1374195973,55.53632,-5.90614,265,4,2013-07-19 01:00:00,1374195600,15.28,11,15.8,30,60,55.3022,-9.977,32,44
82,2013-07-19 02:06:19,1374199579,55.29679,-10.00068,2,1,2013-07-19 02:00:00,1374199200,15.26,9,15.8,30,120,55.3022,-9.977,32,44
83,2013-07-19 03:06:11,1374203171,55.27281,-9.92779,10,3,2013-07-19 03:00:00,1374202800,15.22,9,15.8,30,0,55.3138,-9.96079999999998,32,44
84,2013-07-19 04:06:11,1374206771,55.32235,-9.93865,3,6,2013-07-19 04:00:00,1374206400,15.23,9,15.8,30,60,55.3138,-9.96079999999998,32,44
85,2013-07-19 05:06:12,1374210372,55.34632,-10.01163,4,1,2013-07-19 05:00:00,1374210000,15.22,10,15.8,30,120,55.3138,-9.96079999999998,32,44
86,2013-07-19 06:06:12,1374213972,55.3019,-9.93865,3,1,2013-07-19 06:00:00,1374213600,15.18,10,15.8,30,0,55.3206,-9.9562,146,44
87,2013-07-19 07:06:11,1374217571,55.29679,-10.00068,2,1,2013-07-19 07:00:00,1374217200,15.14,11,15.8,30,60,55.3206,-9.9562,146,44
88,2013-07-19 08:06:11,1374221171,55.34632,-10.01163,11,1,2013-07-19 08:00:00,1374220800,15.09,11,15.8,30,120,55.3206,-9.9562,146,44
89,2013-07-19 09:06:12,1374224772,55.3019,-9.93865,2,3,2013-07-19 09:00:00,1374224400,15.13,12,15.8,30,0,55.3264,-9.9692,140,48
90,2013-07-19 10:06:13,1374228373,55.23392,-14.96792,326,2,2013-07-19 10:00:00,1374228000,15.14,11,15.8,30,60,55.3264,-9.9692,140,48
91,2013-07-19 11:06:20,1374231980,55.3019,-9.93865,5,2,2013-07-19 11:00:00,1374231600,15.19,15,15.8,30,120,55.3264,-9.9692,140,48
92,2013-07-19 12:06:22,1374235582,55.48983,-12.76219,190,2,2013-07-19 12:00:00,1374235200,15.28,12,15.8,30,0,55.343,-9.96699999999998,92,44
93,2013-07-19 13:06:09,1374239169,55.29679,-10.00068,6,2,2013-07-19 13:00:00,1374238800,15.39,13,15.8,30,60,55.343,-9.96699999999998,92,44
94,2013-07-19 14:06:11,1374242771,55.34632,-10.01163,3,2,2013-07-19 14:00:00,1374242400,15.5,15,15.8,30,120,55.343,-9.96699999999998,92,44
95,2013-07-19 15:06:13,1374246373,55.35654,-9.88742,2,6,2013-07-19 15:00:00,1374246000,15.53,11,15.8,30,0,55.3572,-9.94999999999999,118,44
96,2013-07-19 16:06:09,1374249969,55.30249,-9.17238,82,2,2013-07-19 16:00:00,1374249600,15.58,11,15.8,30,60,55.3572,-9.94999999999999,118,44
97,2013-07-19 17:06:09,1374253569,55.35145,-9.94954,2,2,2013-07-19 17:00:00,1374253200,15.6,11,15.8,30,120,55.3572,-9.94999999999999,118,44
98,2013-07-19 18:06:11,1374257171,55.37071,-8.93326,95,4,2013-07-19 18:00:00,1374256800,15.6,12,15.8,30,0,55.365,-9.93899999999999,80,44
99,2013-07-19 19:06:11,1374260771,55.38057,-9.96044,3,2,2013-07-19 19:00:00,1374260400,15.61,11,15.8,30,60,55.365,-9.93899999999999,80,44
100,2013-07-19 20:06:09,1374264369,55.35145,-9.94954,13,5,2013-07-19 20:00:00,1374264000,15.58,13,15.8,30,120,55.365,-9.93899999999999,80,44
101,2013-07-19 21:06:10,1374267970,55.35654,-9.88742,2,3,2013-07-19 21:00:00,1374267600,15.53,16,15.8,30,0,55.3676,-9.9494,18,36
102,2013-07-19 22:06:13,1374271573,55.35145,-9.94954,4,3,2013-07-19 22:00:00,1374271200,15.5,16,15.8,30,60,55.3676,-9.9494,18,36
103,2013-07-19 23:06:14,1374275174,55.34632,-10.01163,10,2,2013-07-19 23:00:00,1374274800,15.47,15,15.8,30,120,55.3676,-9.9494,18,36
104,2013-07-20 00:06:20,1374278780,55.35145,-9.94954,4,1,2013-07-20 00:00:00,1374278400,15.51,13,15.8,30,0,55.3842,-9.95519999999999,92,44
105,2013-07-20 01:06:11,1374282371,55.50095,-7.61975,167,2,2013-07-20 01:00:00,1374282000,15.56,14,15.8,30,60,55.3842,-9.95519999999999,92,44
106,2013-07-20 02:06:19,1374285979,55.35145,-9.94954,3,1,2013-07-20 02:00:00,1374285600,15.49,11,15.8,30,120,55.3842,-9.95519999999999,92,44
107,2013-07-20 03:06:13,1374289573,55.43011,-9.97137,8,4,2013-07-20 03:00:00,1374289200,15.49,12,15.8,30,0,55.401,-9.92779999999999,62,44
108,2013-07-20 04:06:16,1374293176,55.38567,-9.89826,2,1,2013-07-20 04:00:00,1374292800,15.49,12,15.8,30,60,55.401,-9.92779999999999,62,44
109,2013-07-20 05:06:11,1374296771,55.38057,-9.96044,3,7,2013-07-20 05:00:00,1374296400,15.48,11,15.8,30,120,55.401,-9.92779999999999,62,44
110,2013-07-20 06:06:10,1374300370,55.40098,-9.96044,2,1,2013-07-20 06:00:00,1374300000,15.47,13,15.8,30,0,55.4042,-9.90379999999999,116,48
111,2013-07-20 07:06:13,1374303973,55.3616,-9.82528,15,1,2013-07-20 07:00:00,1374303600,15.47,10,15.8,30,60,55.4042,-9.90379999999999,116,48
112,2013-07-20 08:06:10,1374307570,55.41114,-9.83605,2,0,2013-07-20 08:00:00,1374307200,15.52,10,15.8,30,120,55.4042,-9.90379999999999,116,48
113,2013-07-20 09:06:12,1374311172,55.40098,-9.96044,2,1,2013-07-20 09:00:00,1374310800,15.63,10,15.8,30,0,55.4024,-9.911,62,48
114,2013-07-20 10:06:12,1374314772,55.38057,-9.96044,8,1,2013-07-20 10:00:00,1374314400,15.75,12,15.8,30,60,55.4024,-9.911,62,48
115,2013-07-20 11:06:11,1374318371,55.40098,-9.96044,1,2,2013-07-20 11:00:00,1374318000,15.99,11,15.8,30,120,55.4024,-9.911,62,48
116,2013-07-20 12:06:13,1374321973,55.43011,-9.97137,12,3,2013-07-20 12:00:00,1374321600,16.3,11,15.8,30,0,55.4118,-9.92519999999999,50,48
117,2013-07-20 13:06:15,1374325575,55.43522,-9.90912,5,2,2013-07-20 13:00:00,1374325200,16.35,11,15.8,30,60,55.4118,-9.92519999999999,50,48
118,2013-07-20 14:06:11,1374329171,55.6015,-14.29787,10,7,2013-07-20 14:00:00,1374328800,16.48,8,15.8,30,120,55.4118,-9.92519999999999,50,48
119,2013-07-20 15:06:10,1374332770,55.43522,-9.90912,3,2,2013-07-20 15:00:00,1374332400,16.63,9,15.8,30,0,55.4308,-9.91459999999998,32,44
120,2013-07-20 16:06:11,1374336371,55.51005,-11.34719,114,5,2013-07-20 16:00:00,1374336000,16.68,9,15.8,30,60,55.4308,-9.91459999999998,32,44
121,2013-07-20 17:06:17,1374339977,55.45559,-9.90912,2,2,2013-07-20 17:00:00,1374339600,16.85,9,15.8,30,120,55.4308,-9.91459999999998,32,44
122,2013-07-20 18:06:12,1374343572,55.3568,-9.12017,219,2,2013-07-20 18:00:00,1374343200,16.91,13,15.8,30,0,55.4394,-9.90119999999999,50,48
123,2013-07-20 19:06:15,1374347175,55.44029,-9.84685,2,4,2013-07-20 19:00:00,1374346800,16.94,10,15.8,30,60,55.4394,-9.90119999999999,50,48
124,2013-07-20 20:06:10,1374350770,55.37718,-8.42466,114,1,2013-07-20 20:00:00,1374350400,16.96,10,15.8,30,120,55.4394,-9.90119999999999,50,48
125,2013-07-20 21:06:14,1374354374,55.43011,-9.97137,2,4,2013-07-20 21:00:00,1374354000,16.94,11,15.8,30,0,55.4396,-9.904,20,44
126,2013-07-20 22:06:10,1374357970,55.43011,-9.97137,3,3,2013-07-20 22:00:00,1374357600,16.84,11,15.8,30,60,55.4396,-9.904,20,44
127,2013-07-20 23:06:10,1374361570,55.40607,-9.89826,2,8,2013-07-20 23:00:00,1374361200,16.5,10,15.8,30,120,55.4396,-9.904,20,44
128,2013-07-21 00:06:15,1374365175,55.40098,-9.96044,2,4,2013-07-21 00:00:00,1374364800,16.59,10,15.8,30,0,55.4424,-9.9178,86,48
129,2013-07-21 01:06:12,1374368772,55.48475,-9.92001,24,1,2013-07-21 01:00:00,1374368400,16.36,13,15.8,30,60,55.4424,-9.9178,86,48
130,2013-07-21 02:06:12,1374372372,55.44029,-9.84685,2,5,2013-07-21 02:00:00,1374372000,16.68,11,15.8,30,120,55.4424,-9.9178,86,48
131,2013-07-21 03:06:11,1374375971,55.56992,-7.31383,177,1,2013-07-21 03:00:00,1374375600,16.73,10,15.8,30,0,55.4522,-9.9068,32,48
132,2013-07-21 04:06:13,1374379573,55.45559,-9.90912,2,2,2013-07-21 04:00:00,1374379200,16.69,10,15.8,30,60,55.4522,-9.9068,32,48
133,2013-07-21 05:06:11,1374383171,55.46067,-9.84685,3,6,2013-07-21 05:00:00,1374382800,16.41,8,15.8,30,120,55.4522,-9.9068,32,48
134,2013-07-21 06:06:14,1374386774,55.46067,-9.84685,2,1,2013-07-21 06:00:00,1374386400,16.25,9,15.8,30,0,55.4592,-9.89099999999999,62,44
135,2013-07-21 07:06:07,1374390367,55.47963,-9.98233,3,1,2013-07-21 07:00:00,1374390000,16.16,11,15.8,30,60,55.4592,-9.89099999999999,62,44
136,2013-07-21 08:06:12,1374393972,55.48475,-9.92001,3,0,2013-07-21 08:00:00,1374393600,16.12,10,15.8,30,120,55.4592,-9.89099999999999,62,44
137,2013-07-21 09:06:11,1374397571,55.43522,-9.90912,4,0,2013-07-21 09:00:00,1374397200,16.01,11,15.8,30,0,55.4594,-9.89759999999998,64,48
138,2013-07-21 10:06:09,1374401169,55.48475,-9.92001,6,0,2013-07-21 10:00:00,1374400800,16.1,11,15.8,30,60,55.4594,-9.89759999999998,64,48
139,2013-07-21 11:06:12,1374404772,55.46067,-9.84685,2,3,2013-07-21 11:00:00,1374404400,16.16,12,15.8,30,120,55.4594,-9.89759999999998,64,48
140,2013-07-21 12:06:11,1374408371,55.48475,-9.92001,4,2,2013-07-21 12:00:00,1374408000,16.32,10,15.8,30,0,55.4612,-9.91119999999998,142,48
141,2013-07-21 13:06:14,1374411974,55.43522,-9.90912,4,2,2013-07-21 13:00:00,1374411600,16.39,11,15.8,30,60,55.4612,-9.91119999999998,142,48
142,2013-07-21 14:06:09,1374415569,55.71654,-14.36082,287,2,2013-07-21 14:00:00,1374415200,16.65,12,15.8,30,120,55.4612,-9.91119999999998,142,48
143,2013-07-21 15:06:12,1374419172,55.43522,-9.90912,4,6,2013-07-21 15:00:00,1374418800,16.76,12,15.8,30,0,55.4722,-9.91219999999998,56,44
144,2013-07-21 16:06:11,1374422771,55.57583,-11.82004,157,11,2013-07-21 16:00:00,1374422400,16.82,14,15.8,30,60,55.4722,-9.91219999999998,56,44
145,2013-07-21 17:06:11,1374426371,55.43522,-9.90912,7,1,2013-07-21 17:00:00,1374426000,16.98,11,15.8,30,120,55.4722,-9.91219999999998,56,44
146,2013-07-21 18:06:13,1374429973,55.50855,-10.70135,80,4,2013-07-21 18:00:00,1374429600,16.85,15,15.8,30,0,55.4834,-9.8998,80,44
147,2013-07-21 19:06:12,1374433572,55.48983,-9.85767,5,3,2013-07-21 19:00:00,1374433200,16.79,14,15.8,30,60,55.4834,-9.8998,80,44
148,2013-07-21 20:06:18,1374437178,55.558,-10.71312,107,2,2013-07-21 20:00:00,1374436800,16.8,11,15.8,30,120,55.4834,-9.8998,80,44
149,2013-07-21 21:06:21,1374440781,55.51392,-9.93093,4,2,2013-07-21 21:00:00,1374440400,16.78,14,15.8,30,0,55.4878,-9.9076,56,44
150,2013-07-21 22:06:11,1374444371,55.47963,-9.98233,14,5,2013-07-21 22:00:00,1374444000,16.73,12,15.8,30,60,55.4878,-9.9076,56,44
151,2013-07-21 23:06:09,1374447969,55.48983,-9.85767,3,8,2013-07-21 23:00:00,1374447600,16.76,10,15.8,30,120,55.4878,-9.9076,56,44
152,2013-07-22 00:06:12,1374451572,55.48983,-9.85767,2,5,2013-07-22 00:00:00,1374451200,16.77,9,15.8,30,0,55.4838,-9.92019999999999,62,44
153,2013-07-22 01:06:09,1374455169,55.49323,-10.1803,74,2,2013-07-22 01:00:00,1374454800,16.68,11,15.8,30,60,55.4838,-9.92019999999999,62,44
154,2013-07-22 02:06:09,1374458769,55.47963,-9.98233,2,2,2013-07-22 02:00:00,1374458400,16.6,11,15.8,30,120,55.4838,-9.92019999999999,62,44
155,2013-07-22 03:06:12,1374462372,55.49919,-8.96275,121,6,2013-07-22 03:00:00,1374462000,16.58,11,15.8,30,0,55.4854,-9.92359999999999,32,44
156,2013-07-22 04:06:13,1374465973,55.48475,-9.92001,3,1,2013-07-22 04:00:00,1374465600,16.67,11,15.8,30,60,55.4854,-9.92359999999999,32,44
157,2013-07-22 05:06:09,1374469569,55.50879,-9.99331,7,2,2013-07-22 05:00:00,1374469200,16.55,11,15.8,30,120,55.4854,-9.92359999999999,32,44
158,2013-07-22 06:06:11,1374473171,55.51392,-9.93093,4,1,2013-07-22 06:00:00,1374472800,16.54,9,15.8,30,0,55.4932,-9.9136,62,48
159,2013-07-22 07:06:10,1374476770,55.47963,-9.98233,5,0,2013-07-22 07:00:00,1374476400,16.41,12,15.8,30,60,55.4932,-9.9136,62,48
160,2013-07-22 08:06:12,1374480372,55.53426,-9.93093,7,2,2013-07-22 08:00:00,1374480000,16.46,8,15.8,30,120,55.4932,-9.9136,62,48
161,2013-07-22 09:06:13,1374483973,55.47963,-9.98233,4,1,2013-07-22 09:00:00,1374483600,16.46,12,15.8,30,0,55.4924,-9.9196,54,44
162,2013-07-22 10:06:10,1374487570,55.48983,-9.85767,1,1,2013-07-22 10:00:00,1374487200,16.5,8,15.8,30,60,55.4924,-9.9196,54,44
163,2013-07-22 11:06:12,1374491172,55.45559,-9.90912,7,3,2013-07-22 11:00:00,1374490800,16.69,8,15.8,30,120,55.4924,-9.9196,54,44
164,2013-07-22 12:06:13,1374494773,55.48983,-9.85767,2,5,2013-07-22 12:00:00,1374494400,16.7,9,15.8,30,0,55.488,-9.93599999999998,62,44
165,2013-07-22 13:06:10,1374498370,55.47963,-9.98233,1,2,2013-07-22 13:00:00,1374498000,16.81,12,15.8,30,60,55.488,-9.93599999999998,62,44
166,2013-07-22 14:06:10,1374501970,55.47963,-9.98233,3,3,2013-07-22 14:00:00,1374501600,16.86,10,15.8,30,120,55.488,-9.93599999999998,62,44
167,2013-07-22 15:06:19,1374505579,55.48475,-9.92001,2,2,2013-07-22 15:00:00,1374505200,17.01,9,15.8,30,0,55.489,-9.94399999999999,62,44
168,2013-07-22 16:06:10,1374509170,55.48983,-9.85767,4,4,2013-07-22 16:00:00,1374508800,17.14,12,15.8,30,60,55.489,-9.94399999999999,62,44
169,2013-07-22 17:06:12,1374512772,55.47963,-9.98233,2,8,2013-07-22 17:00:00,1374512400,17.15,11,15.8,30,120,55.489,-9.94399999999999,62,44
170,2013-07-22 18:06:21,1374516381,55.64168,-13.14227,212,2,2013-07-22 18:00:00,1374516000,17.03,14,15.8,30,0,55.4944,-9.935,62,48
171,2013-07-22 19:06:13,1374519973,55.50879,-9.99331,3,4,2013-07-22 19:00:00,1374519600,16.99,9,15.8,30,60,55.4944,-9.935,62,48
172,2013-07-22 20:06:18,1374523578,55.47739,-10.36708,303,2,2013-07-22 20:00:00,1374523200,16.9,11,15.8,30,120,55.4944,-9.935,62,48
173,2013-07-22 21:06:13,1374527173,55.48475,-9.92001,2,4,2013-07-22 21:00:00,1374526800,16.83,11,15.8,30,0,55.4946,-9.94219999999999,18,44
174,2013-07-22 22:06:12,1374530772,55.47963,-9.98233,4,3,2013-07-22 22:00:00,1374530400,16.86,13,15.8,30,60,55.4946,-9.94219999999999,18,44
175,2013-07-22 23:06:13,1374534373,55.43011,-9.97137,7,2,2013-07-22 23:00:00,1374534000,16.84,13,15.8,30,120,55.4946,-9.94219999999999,18,44
176,2013-07-23 00:06:10,1374537970,55.48475,-9.92001,4,2,2013-07-23 00:00:00,1374537600,16.79,11,15.8,30,0,55.4878,-9.95579999999998,56,48
177,2013-07-23 01:06:15,1374541575,55.39271,-11.83011,138,2,2013-07-23 01:00:00,1374541200,16.79,9,15.8,30,60,55.4878,-9.95579999999998,56,48
178,2013-07-23 02:06:10,1374545170,55.45049,-9.97137,3,2,2013-07-23 02:00:00,1374544800,16.8,9,15.8,30,120,55.4878,-9.95579999999998,56,48
179,2013-07-23 03:06:12,1374548772,55.55339,-8.91002,101,3,2013-07-23 03:00:00,1374548400,16.85,10,15.8,30,0,55.4826,-9.96359999999999,34,44
180,2013-07-23 04:06:12,1374552372,55.45559,-9.90912,2,6,2013-07-23 04:00:00,1374552000,16.79,11,15.8,30,60,55.4826,-9.96359999999999,34,44
181,2013-07-23 05:06:37,1374555997,55.5422,-8.64982,106,2,2013-07-23 05:00:00,1374555600,16.77,8,15.8,30,120,55.4826,-9.96359999999999,34,44
182,2013-07-23 06:06:13,1374559573,55.47963,-9.98233,2,6,2013-07-23 06:00:00,1374559200,16.71,7,15.8,37,0,55.4892,-9.95359999999999,34,48
183,2013-07-23 07:06:11,1374563171,55.47963,-9.98233,3,1,2013-07-23 07:00:00,1374562800,16.73,8,15.8,30,60,55.4892,-9.95359999999999,34,48
184,2013-07-23 08:06:09,1374566769,55.48475,-9.92001,1,1,2013-07-23 08:00:00,1374566400,16.72,9,15.8,30,120,55.4892,-9.95359999999999,34,48
185,2013-07-23 09:06:11,1374570371,55.47448,-10.04462,3,1,2013-07-23 09:00:00,1374570000,16.71,7,15.8,30,0,55.4898,-9.9538,62,48
186,2013-07-23 10:06:12,1374573972,55.47963,-9.98233,5,1,2013-07-23 10:00:00,1374573600,16.82,9,15.8,30,60,55.4898,-9.9538,62,48
187,2013-07-23 11:06:11,1374577571,55.47448,-10.04462,2,19,2013-07-23 11:00:00,1374577200,16.83,9,15.8,30,120,55.4898,-9.9538,62,48
188,2013-07-23 12:06:12,1374581172,55.47963,-9.98233,2,2,2013-07-23 12:00:00,1374580800,16.84,11,15.8,30,0,55.4858,-9.96719999999999,32,48
189,2013-07-23 13:06:12,1374584772,55.53426,-9.93093,8,3,2013-07-23 13:00:00,1374584400,16.92,10,15.8,30,60,55.4858,-9.96719999999999,32,48
190,2013-07-23 14:06:19,1374588379,55.45559,-9.90912,4,2,2013-07-23 14:00:00,1374588000,17.04,9,15.8,30,120,55.4858,-9.96719999999999,32,48
191,2013-07-23 15:06:13,1374591973,55.47963,-9.98233,3,5,2013-07-23 15:00:00,1374591600,16.97,11,15.8,30,0,55.4828,-9.9708,32,48
192,2013-07-23 16:06:11,1374595571,55.48475,-9.92001,4,5,2013-07-23 16:00:00,1374595200,16.93,9,15.8,30,60,55.4828,-9.9708,32,48
193,2013-07-23 17:06:09,1374599169,55.50879,-9.99331,2,4,2013-07-23 17:00:00,1374598800,16.97,9,15.8,30,120,55.4828,-9.9708,32,48
194,2013-07-23 18:06:16,1374602776,55.70617,-13.29519,227,15,2013-07-23 18:00:00,1374602400,16.91,8,15.8,30,0,55.4918,-9.96079999999998,32,48
195,2013-07-23 19:06:14,1374606374,55.48475,-9.92001,2,6,2013-07-23 19:00:00,1374606000,16.85,10,15.8,30,60,55.4918,-9.96079999999998,32,48
196,2013-07-23 20:06:10,1374609970,55.63675,-12.6184,181,10,2013-07-23 20:00:00,1374609600,16.81,10,15.8,30,120,55.4918,-9.96079999999998,32,48
197,2013-07-23 21:06:12,1374613572,55.47963,-9.98233,1,7,2013-07-23 21:00:00,1374613200,16.74,7,15.8,30,0,55.4968,-9.9528,62,48
198,2013-07-23 22:06:13,1374617173,55.61079,-12.28095,170,5,2013-07-23 22:00:00,1374616800,16.62,12,15.8,30,60,55.4968,-9.9528,62,48
199,2013-07-23 23:06:12,1374620772,55.48475,-9.92001,2,8,2013-07-23 23:00:00,1374620400,16.59,11,15.8,30,120,55.4968,-9.9528,62,48
200,2013-07-24 00:06:10,1374624370,55.47963,-9.98233,2,2,2013-07-24 00:00:00,1374624000,16.55,10,15.8,30,0,55.4922,-9.9614,116,44
201,2013-07-24 01:06:13,1374627973,55.47963,-9.98233,3,1,2013-07-24 01:00:00,1374627600,16.53,12,15.8,30,60,55.4922,-9.9614,116,44
202,2013-07-24 02:06:10,1374631570,55.48475,-9.92001,2,1,2013-07-24 02:00:00,1374631200,16.52,10,15.8,30,120,55.4922,-9.9614,116,44
203,2013-07-24 03:06:23,1374635183,55.44305,-11.52071,120,2,2013-07-24 03:00:00,1374634800,16.49,10,15.8,30,0,55.4898,-9.97039999999998,62,32
204,2013-07-24 04:06:13,1374638773,55.47963,-9.98233,2,4,2013-07-24 04:00:00,1374638400,16.49,11,15.6,30,60,55.4898,-9.97039999999998,62,32
205,2013-07-24 05:06:19,1374642379,55.47963,-9.98233,3,4,2013-07-24 05:00:00,1374642000,16.49,11,15.6,30,120,55.4898,-9.97039999999998,62,32
206,2013-07-24 06:06:12,1374645972,55.48475,-9.92001,2,1,2013-07-24 06:00:00,1374645600,16.44,13,15.6,30,0,55.4984,-9.95739999999998,80,48
207,2013-07-24 07:06:10,1374649570,55.56408,-8.33636,122,1,2013-07-24 07:00:00,1374649200,16.48,12,15.6,30,60,55.4984,-9.95739999999998,80,48
208,2013-07-24 08:06:11,1374653171,55.52913,-9.99331,3,2,2013-07-24 08:00:00,1374652800,16.53,10,15.6,30,120,55.4984,-9.95739999999998,80,48
209,2013-07-24 09:06:12,1374656772,55.47963,-9.98233,11,0,2013-07-24 09:00:00,1374656400,16.5,13,15.6,30,0,55.504,-9.94199999999998,86,44
210,2013-07-24 10:06:14,1374660374,55.53426,-9.93093,5,1,2013-07-24 10:00:00,1374660000,16.48,11,15.6,30,60,55.504,-9.94199999999998,86,44
211,2013-07-24 11:06:17,1374663977,55.47963,-9.98233,4,2,2013-07-24 11:00:00,1374663600,16.45,13,15.6,30,120,55.504,-9.94199999999998,86,44
212,2013-07-24 12:06:22,1374667582,55.52913,-9.99331,4,3,2013-07-24 12:00:00,1374667200,16.42,13,15.6,30,0,55.5028,-9.952,92,48
213,2013-07-24 13:06:25,1374671185,55.47963,-9.98233,6,2,2013-07-24 13:00:00,1374670800,16.41,14,15.6,30,60,55.5028,-9.952,92,48
214,2013-07-24 14:06:24,1374674784,55.48475,-9.92001,2,2,2013-07-24 14:00:00,1374674400,16.43,11,15.6,30,120,55.5028,-9.952,92,48
215,2013-07-24 15:06:13,1374678373,55.47963,-9.98233,4,3,2013-07-24 15:00:00,1374678000,16.49,12,15.6,30,0,55.5022,-9.95839999999998,170,44
216,2013-07-24 16:06:18,1374681978,55.47963,-9.98233,13,2,2013-07-24 16:00:00,1374681600,16.51,15,15.6,30,60,55.5022,-9.95839999999998,170,44
217,2013-07-24 17:06:13,1374685573,55.48475,-9.92001,9,3,2013-07-24 17:00:00,1374685200,16.53,16,15.6,30,120,55.5022,-9.95839999999998,170,44
218,2013-07-24 18:06:11,1374689171,55.8196,-14.85735,318,3,2013-07-24 18:00:00,1374688800,16.58,12,15.6,30,0,55.515,-9.9478,110,48
219,2013-07-24 19:06:11,1374692771,55.50879,-9.99331,2,7,2013-07-24 19:00:00,1374692400,16.55,10,15.6,30,60,55.515,-9.9478,110,48
220,2013-07-24 20:06:11,1374696371,55.56344,-9.94186,10,2,2013-07-24 20:00:00,1374696000,16.54,11,15.6,30,120,55.515,-9.9478,110,48
221,2013-07-24 21:06:11,1374699971,55.56344,-9.94186,5,6,2013-07-24 21:00:00,1374699600,16.47,10,15.6,30,0,55.5218,-9.92619999999999,32,44
222,2013-07-24 22:06:13,1374703573,55.50879,-9.99331,2,4,2013-07-24 22:00:00,1374703200,16.41,10,15.6,30,60,55.5218,-9.92619999999999,32,44
223,2013-07-24 23:06:11,1374707171,55.53935,-9.86852,3,7,2013-07-24 23:00:00,1374706800,16.3,12,15.6,30,120,55.5218,-9.92619999999999,32,44
224,2013-07-25 00:06:11,1374710771,55.53935,-9.86852,2,5,2013-07-25 00:00:00,1374710400,16.23,14,15.6,30,0,55.5198,-9.9306,30,44
225,2013-07-25 01:06:18,1374714378,55.44801,-14.38925,289,1,2013-07-25 01:00:00,1374714000,16.17,15,15.6,30,60,55.5198,-9.9306,30,44
226,2013-07-25 02:06:11,1374717971,55.50879,-9.99331,2,5,2013-07-25 02:00:00,1374717600,16.15,13,15.6,30,120,55.5198,-9.9306,30,44
227,2013-07-25 03:06:12,1374721572,55.36002,-13.11763,218,4,2013-07-25 03:00:00,1374721200,16.17,10,15.6,30,0,55.5198,-9.9376,118,44